Weather History for North Las Vegas, NV

Change the Weather History Date:

Thursday, May 9, 2013

  Actual Average Record
Temperature  
Mean Temperature 68 °F -  
Max Temperature 75 °F 91 °F 101 °F (1960)
Min Temperature 60 °F 63 °F 40 °F (1955)
Cooling Degree Days 2    
Growing Degree Days 18 (Base 50)    
Moisture  
Dew Point 40 °F    
Average Humidity 36    
Maximum Humidity 44    
Minimum Humidity 23    
Precipitation  
Precipitation 0.00 in - - ()
Sea Level Pressure  
Sea Level Pressure 30.00 in    
Wind  
Wind Speed 10 mph (NNW)    
Max Wind Speed 16 mph    
Max Gust Speed 26 mph    
Visibility 10 miles    
Events      
Averages and records for this station are not official NWS values.
T = Trace of Precipitation, MM = Missing Value Source: NWS Daily Summary

Daily Weather History Graph

Daily Weather History Graph

Search for Another Location

Airport:

Trip Planner

Search our weather history database for the weather conditions in past years. The results will help you decide how hot, cold, wet, or windy it might be!

Date:

Astronomy

May. 09, 2013 Rise Set
Actual Time 5:39 AM PDT 7:35 PM PDT
Civil Twilight 5:11 AM PDT 8:03 PM PDT
Nautical Twilight 4:37 AM PDT 8:38 PM PDT
Astronomical Twilight 4:00 AM PDT 9:14 PM PDT
Moon 5:25 AM PDT (5/9) 7:34 PM PDT (5/9)
Length of Visible Light 14h 52m
Length of Day
13h 56m
Waning Crescent, 0% of the Moon is Illuminated
May 9
Waning Crescent
May 9
New
May 17
First Quarter
May 24
Full
May 31
Last Quarter

Hourly Weather History & Observations

Time (PDT) Temp. Dew Point Humidity Pressure Visibility Wind Dir Wind Speed Gust Speed Precip Events Conditions
12:53 AM 63.0 °F 37.9 °F 40% 29.99 in 10.0 mi NNW 11.5 mph - N/A   Clear
1:53 AM 63.0 °F 37.9 °F 40% 29.99 in 10.0 mi NW 10.4 mph - N/A   Clear
2:53 AM 63.0 °F 37.9 °F 40% 29.98 in 10.0 mi NNW 12.7 mph - N/A   Clear
3:53 AM 63.0 °F 37.0 °F 38% 29.99 in 10.0 mi NNW 8.1 mph - N/A   Clear
4:53 AM 60.1 °F 37.9 °F 44% 29.99 in 10.0 mi NW 11.5 mph - N/A   Clear
5:53 AM 61.0 °F 37.9 °F 42% 29.99 in 10.0 mi NNW 9.2 mph - N/A   Clear
6:53 AM 63.0 °F 37.9 °F 40% 30.01 in 10.0 mi NNW 12.7 mph - N/A   Clear
7:53 AM 66.0 °F 41.0 °F 40% 30.01 in 10.0 mi NNW 11.5 mph - N/A   Clear
8:53 AM 68.0 °F 41.0 °F 37% 30.02 in 10.0 mi North 9.2 mph - N/A   Clear
9:53 AM 69.1 °F 42.1 °F 38% 30.04 in 10.0 mi NE 5.8 mph - N/A   Clear
10:53 AM 72.0 °F 37.9 °F 29% 30.04 in 10.0 mi Calm Calm - N/A   Clear
11:53 AM 70.0 °F 41.0 °F 35% 30.04 in 10.0 mi North 16.1 mph 26.5 mph N/A   Scattered Clouds
12:53 PM 69.1 °F 43.0 °F 39% 30.04 in 10.0 mi North 9.2 mph - N/A   Overcast
1:53 PM 73.0 °F 37.0 °F 27% 30.01 in 10.0 mi NW 4.6 mph - N/A   Clear
2:53 PM 75.9 °F 37.0 °F 24% 29.98 in 10.0 mi South 4.6 mph - N/A   Clear
3:53 PM 75.9 °F 36.0 °F 23% 29.97 in 10.0 mi Calm Calm - N/A   Clear
4:53 PM 75.9 °F 39.9 °F 27% 29.96 in 10.0 mi North 9.2 mph - N/A   Clear
5:53 PM 75.9 °F 39.0 °F 26% 29.96 in 10.0 mi NNW 5.8 mph - N/A   Partly Cloudy
6:53 PM 73.0 °F 42.1 °F 33% 29.97 in 10.0 mi NNW 16.1 mph - N/A   Clear
7:53 PM 72.0 °F 44.1 °F 37% 29.99 in 10.0 mi North 11.5 mph - N/A   Clear
8:53 PM 70.0 °F 46.0 °F 42% 30.01 in 10.0 mi North 11.5 mph - N/A   Clear
9:53 PM 69.1 °F 45.0 °F 42% 30.04 in 10.0 mi NNW 8.1 mph - N/A   Clear
10:53 PM 68.0 °F 43.0 °F 40% 30.03 in 10.0 mi NNW 9.2 mph - N/A   Clear
11:53 PM 68.0 °F 44.1 °F 42% 30.04 in 10.0 mi NNW 10.4 mph - N/A   Clear